Regional Weather Roundup
Issued by NWS Green Bay, WI

Home | Current Version | Previous Version | Graphics & Text | Print | Product List | Glossary Off
Versions: 1 2 3 4 5 6 7 8 9 10 11 12 13 14 15 16 17 18 19 20 21 22 23 24 25 26 27 28 29 30 31 32 33 34 35 36 37 38 39 40 41 42 43 44 45 46 47 48 49 50

000
ASUS43 KGRB 210810
RWRGRB

NORTH-CENTRAL AND NORTHEAST WISCONSIN REGIONAL WEATHER ROUNDUP
NATIONAL WEATHER SERVICE GREEN BAY WI
300 AM CDT TUE OCT 21 2014

WIZ005-009-010>012-018-019-210900-
NORTH CENTRAL WISCONSIN

CITY           SKY/WX    TMP DP  RH WIND       PRES   REMARKS
IRONWOOD       CLOUDY    39  37  93 CALM      30.14R
MANITOWISH WTR CLOUDY    38  37  97 N5        30.13S
ARBOR VITAE    CLOUDY    39  37  90 N3        30.13R
EAGLE RIVER    CLOUDY    38  37  94 N6        30.11S
LAND O LAKES   CLOUDY    39  37  92 N8        30.13R
RHINELANDER    CLOUDY    39  35  86 VRB6      30.12R
PHILLIPS       CLOUDY    40  36  86 N5        30.13R
ANTIGO         CLOUDY    39  34  81 N15G21    30.10R
TOMAHAWK       CLOUDY    40  34  78 CALM      30.13R
MERRILL        CLOUDY    41  35  79 NE8       30.12R
$$

WIZ013-073-210900-
NORTHEAST WISCONSIN

CITY           SKY/WX    TMP DP  RH WIND       PRES   REMARKS
IRON MOUNTAIN  CLOUDY    41  36  82 N8        30.09R
MARINETTE      CLOUDY    43  36  75 N13G20    30.06R
OCONTO         CLOUDY    44  39  83 N7        30.07R
$$

WIZ017-030-035>037-045-210900-
CENTRAL WISCONSIN

CITY           SKY/WX    TMP DP  RH WIND       PRES   REMARKS
MEDFORD        PTCLDY    38  35  87 N6        30.12R
WAUSAU         CLEAR     41  34  76 N10G18    30.10R
MOSINEE        CLEAR     39  36  87 N10       30.11R
MARSHFIELD     MOCLDY    44  37  76 NE7       30.10R
WISC RAPIDS    MOCLDY    44  38  79 N7        30.11R
STEVENS POINT  CLEAR     39  35  85 N5        30.11R
WAUPACA        MOCLDY    44  40  86 N6        30.09R
SHAWANO        CLOUDY    44  38  80 N8        30.09R
CLINTONVILLE   CLOUDY    41  36  81 N6        30.09R
$$

WIZ038-039-048-051-210900-
FOX VALLEY

CITY           SKY/WX    TMP DP  RH WIND       PRES   REMARKS
NWS GREEN BAY  CLOUDY    44  38  79 N7        30.07R
APPLETON       CLOUDY    43  36  75 N10       30.08R
OSHKOSH        CLOUDY    45  38  76 N9        30.07R
FOND DU LAC    CLOUDY    46  36  68 N13       30.07R
$$

WIZ022-050-052-210900-
EAST CENTRAL WISCONSIN

CITY           SKY/WX    TMP DP  RH WIND       PRES   REMARKS
STURGEON BAY   CLOUDY    45  37  76 N17       30.06R
MANITOWOC      CLOUDY    46  39  76 N9        30.05R
SHEBOYGAN      CLOUDY    45  39  79 N8        30.05R
$$

LMZ563-521-522-541>543-210900-
LAKESHORE

STATION/POSITION TIME  TEMP    WIND        PRES    VSBY  WAVE
                       AIR SEA DIR/SP/G                  HT/PER
                 (UTC) (F)     (DEG/KT/KT) (MB)    (MI)  (FT/S)
SHEBOYGAN LKSHOR 0800   46 50  340/ 11/ 13 1017.9R
KEWAUNEE LKSHORE 0800   45     350/  7/ 15 1016.5R
NORTHPORT PIER   0800   46     350/ 18     1017.6R
N MID LAKE BUOY  0800   47 51  360/ 19/ 23 1016.6R         4/ 5
CHAMBERS ISLAND  0800   45     330/ 19/ 24 1017.9R
MENOMINEE LKSHOR 0800   45     340/ 15/ 18 1018.5S
$$



USA.gov is the U.S. government's official web portal to all federal, state and local government web resources and services.